RH
13 15 20 23 25 32 30 25 18 32 59 57 61 71 86 84 83 84 90 82 88 100 95 84 74 68 78 72 71 76 79 79 76 67 53 44 42 38 42 50 64 76 76 60 28 24 25 30 40
14 24 28 27 25 26 24 24 64 61 61 60 56 67 80 94 82 97 91 94 99 99 100 92 82 81 77 78 89 87 94 80 72 61 48 42 39 39 41 49 59 58 43 26 24 26 31 36 43
21 22 23 26 24 22 22 40 58 56 54 50 57 67 78 88 78 87 76 88 100 99 99 90 78 80 80 84 89 92 89 75 62 53 45 36 36 34 41 42 38 31 28 28 29 28 28 34 42
18 17 20 18 20 15 21 66 56 54 48 51 61 84 78 95 97 95 86 88 99 100 97 92 82 74 80 88 88 89 72 61 52 50 39 26 30 37 42 35 32 30 31 32 30 28 28 33 38
16 22 22 19 16 25 61 64 63 54 53 54 53 71 89 98 100 100 97 90 98 100 92 85 75 81 89 85 81 69 57 48 49 43 29 26 32 38 35 34 32 32 33 32 32 33 35 32 34
25 20 22 21 20 56 61 67 66 65 65 53 60 68 89 100 98 100 97 91 89 93 90 80 76 78 77 80 71 60 52 48 46 33 26 28 34 32 32 30 31 32 34 34 35 35 45 43 41
25 25 24 20 19 47 61 60 67 65 65 54 50 82 93 98 100 100 100 96 92 96 96 90 84 75 82 71 64 54 46 44 34 26 27 33 31 29 29 29 30 32 34 35 36 37 44 49 44
20 20 19 18 47 62 59 67 69 55 48 56 53 90 96 95 100 100 98 100 99 92 83 77 68 83 81 73 58 46 40 37 30 31 34 33 28 30 30 29 31 34 35 41 44 46 55 53 52
14 22 24 20 62 57 60 61 56 57 54 52 66 78 85 100 100 100 99 99 95 88 71 72 93 75 77 67 54 43 39 34 36 37 36 37 41 34 34 36 36 38 45 52 54 58 58 55 53
16 22 18 21 55 65 63 65 65 61 53 85 93 96 98 99 96 94 94 97 100 95 88 82 84 74 80 69 48 41 39 38 40 50 56 62 59 55 46 46 48 48 50 56 58 62 59 57 55
14 18 25 53 57 57 62 64 61 58 48 63 96 96 92 94 91 88 86 91 82 82 70 85 85 80 64 55 46 43 45 51 58 63 66 68 70 70 64 61 61 61 62 66 67 60 56 54 52
14 14 24 56 55 54 62 57 54 57 48 65 80 86 86 90 85 76 74 75 84 90 80 83 79 67 56 47 44 48 49 62 70 73 75 77 72 72 75 74 74 73 66 61 58 56 52 48 45
17 15 31 49 55 52 54 53 50 51 50 72 66 82 82 77 73 75 77 82 68 82 81 73 67 57 52 48 63 67 65 71 79 82 84 82 79 75 74 70 63 60 58 57 54 50 46 43 40
20 45 50 51 50 55 55 52 45 43 50 66 78 84 80 79 74 82 86 79 85 80 77 72 67 65 62 61 66 70 74 81 83 78 74 75 71 69 71 64 61 58 55 51 48 43 40 35 32
20 30 41 42 42 39 44 45 46 46 48 65 74 78 81 82 77 85 83 76 80 68 60 65 72 63 66 62 67 75 80 77 72 75 74 76 76 75 68 61 57 53 51 47 43 42 39 31 32
18 23 34 46 43 36 35 38 36 37 58 69 74 78 82 78 71 85 80 72 67 61 58 59 64 73 70 73 74 73 73 75 73 71 73 77 79 76 72 64 54 50 46 45 44 42 40 43 43
24 27 24 33 30 35 33 36 36 38 42 62 69 68 69 78 76 76 66 60 60 58 60 68 70 72 72 74 72 73 74 66 62 70 78 75 69 66 54 46 47 47 45 43 42 44 48 46 48
29 25 24 26 39 37 42 36 31 35 48 54 61 62 49 56 59 54 49 56 53 53 62 70 74 72 71 70 70 65 60 59 62 70 68 64 54 48 50 48 45 44 42 43 46 47 46 52 53
26 27 27 23 25 39 37 33 31 40 44 42 40 52 48 52 44 43 51 56 62 67 64 76 75 72 69 66 62 65 64 65 62 60 55 53 54 58 52 48 47 46 45 44 47 48 51 51 51
35 33 28 26 21 33 33 34 33 37 37 33 31 35 35 38 44 48 54 59 64 74 71 76 75 72 65 54 53 63 68 67 57 53 54 59 59 53 50 48 47 47 46 46 47 48 50 50 53
36 40 33 31 25 21 24 28 23 24 34 35 34 28 29 34 42 56 61 66 78 90 85 79 76 72 64 52 61 76 77 66 60 61 61 62 56 51 48 48 48 47 46 48 49 51 51 52 50
40 33 33 32 25 25 25 41 35 25 32 38 34 37 35 37 40 59 64 82 85 88 86 82 76 72 69 65 76 76 68 68 61 59 60 60 58 50 49 48 47 46 50 50 51 51 48 46 48
38 33 31 32 35 33 33 35 34 30 30 33 38 38 36 45 40 61 72 79 89 90 86 84 78 75 79 75 83 77 63 56 56 59 60 60 54 50 49 47 47 51 50 50 49 46 43 42 44
27 29 43 48 48 50 36 37 37 35 28 23 31 35 39 52 48 58 79 87 94 90 87 82 82 82 84 78 88 71 55 55 57 60 62 60 54 52 52 51 52 50 50 48 44 41 41 42 43
30 40 55 59 71 59 39 44 34 31 29 27 29 44 48 58 65 81 91 92 98 97 93 88 85 85 79 78 83 66 53 53 52 57 61 60 60 56 50 48 48 46 41 40 41 42 43 44 46
41 37 59 46 76 61 38 46 40 33 31 27 27 39 59 64 66 78 83 85 93 93 91 86 83 78 79 74 68 60 55 56 54 58 61 56 50 51 46 42 46 42 39 40 42 43 45 46 53
38 46 39 53 63 81 48 29 33 32 38 43 47 51 66 78 83 84 83 86 86 84 82 79 72 76 61 53 54 50 49 50 50 48 50 53 58 51 51 48 48 43 41 42 44 48 49 56 66
29 33 47 60 40 43 40 37 51 36 35 42 49 53 67 66 72 78 78 79 74 69 69 68 71 66 52 52 53 53 49 43 49 56 64 65 68 59 58 56 42 42 44 45 47 52 59 67 68
32 32 32 41 56 56 68 44 30 40 38 47 51 58 63 61 61 66 69 69 67 64 53 48 49 48 51 56 53 48 48 50 55 63 70 62 62 56 48 44 45 46 48 48 53 55 61 56 60
41 38 40 63 37 58 74 46 28 34 38 37 41 54 58 54 52 56 59 62 59 53 49 48 48 50 56 58 49 52 56 63 67 68 65 69 53 49 44 46 46 48 49 53 55 57 58 60 71
Wind_Speed
5 3 2 2 4 4 4 6 5 8 1 7 3 11 10 4 3 3 9 17 30 30 34 34 35 34 27 27 26 25 24 24 23 22 22 22 22 23 22 23 23 22 20 21 23 23 23 24 27
3 2 1 2 4 2 5 5 3 5 6 6 6 7 6 5 4 9 11 24 31 30 32 35 35 32 30 27 25 26 23 23 23 21 23 23 22 23 22 22 22 22 22 24 25 26 26 26 30
4 4 3 3 3 5 4 3 3 0 2 2 4 6 4 2 4 7 11 28 27 27 32 35 36 34 30 27 25 24 23 22 22 21 24 24 22 22 21 21 22 23 24 25 25 26 26 25 28
1 4 3 3 6 5 3 13 6 5 3 4 4 7 5 4 1 10 29 29 27 28 33 32 37 36 32 27 26 24 24 22 21 22 23 24 23 21 20 22 23 23 24 24 26 26 25 25 23
1 3 0 4 3 1 2 5 7 5 2 4 1 3 4 4 20 22 26 23 25 24 32 31 31 31 28 27 24 23 22 22 23 23 23 23 22 21 21 22 22 23 22 22 23 22 22 22 20
3 3 3 1 3 1 2 4 2 3 6 7 6 5 3 9 22 26 21 24 24 22 22 23 25 26 24 25 23 23 22 22 22 23 23 23 23 22 20 21 21 20 19 19 18 18 19 20 20
5 3 4 3 3 5 2 5 1 4 8 3 2 4 2 6 24 32 34 33 33 29 26 23 20 21 21 21 22 22 22 22 23 23 23 23 22 21 19 19 18 16 15 16 16 14 15 14 15
5 4 2 3 2 5 1 4 7 2 5 3 2 5 5 8 27 33 30 26 34 27 27 28 20 14 20 21 21 22 22 22 22 22 23 22 21 19 17 16 14 13 14 14 14 13 13 11 9
4 3 3 6 7 3 3 4 2 6 4 3 5 3 18 25 28 29 28 25 26 26 28 26 20 22 23 23 22 21 22 22 22 22 22 21 20 17 15 13 12 12 13 13 13 11 12 11 11
4 3 7 3 3 5 4 4 4 1 1 4 12 18 28 28 23 22 20 18 20 23 23 24 22 24 25 23 23 23 24 24 24 23 20 17 16 14 12 11 10 10 9 9 10 11 10 9 9
4 7 6 1 4 7 8 3 4 5 4 6 12 14 18 26 20 20 19 21 27 29 27 25 21 23 22 23 24 23 23 23 21 17 16 14 11 11 10 8 7 8 7 8 12 12 10 9 8
4 10 9 11 7 6 5 3 2 3 2 16 18 22 20 17 17 20 19 26 28 25 25 24 25 23 23 23 24 24 23 20 16 11 10 10 10 10 7 6 7 12 13 16 12 9 6 6 8
3 6 6 12 12 6 4 3 2 2 8 10 12 20 19 20 31 29 21 17 28 23 18 25 25 25 26 26 25 23 21 17 15 14 15 14 16 15 13 13 16 17 13 10 8 6 7 9 10
5 9 12 5 6 5 6 3 3 4 9 12 15 18 19 20 27 24 20 17 22 18 26 27 28 27 26 24 22 19 17 18 17 14 13 12 14 13 14 17 15 13 8 7 6 8 10 10 11
2 12 8 3 1 4 5 2 3 3 10 13 16 19 19 20 26 24 27 26 23 28 29 29 31 27 25 23 22 22 25 21 16 13 11 12 13 15 16 15 13 10 6 4 5 7 9 10 10
3 4 4 5 9 5 11 4 5 6 10 9 11 15 16 21 31 26 30 27 31 34 30 28 28 30 29 27 27 24 21 17 15 13 13 13 13 13 14 12 10 8 6 4 6 8 8 8 9
4 3 4 2 4 3 3 4 6 7 8 8 12 16 17 18 21 25 29 34 38 34 33 28 29 31 30 27 24 21 18 16 14 13 14 15 15 13 13 11 10 7 5 4 6 5 6 8 7
2 3 2 5 6 2 2 6 5 7 11 12 13 15 16 18 20 29 32 34 37 36 37 31 32 32 29 25 21 19 16 13 14 16 17 16 15 14 12 12 10 8 5 4 4 4 6 4 8
8 12 6 6 11 7 12 6 7 8 10 13 14 17 17 18 22 27 31 34 35 34 39 37 35 31 28 26 23 18 16 16 15 15 17 17 14 12 12 12 12 8 4 3 3 4 5 7 13
8 9 7 9 4 15 5 11 5 9 12 17 19 18 17 13 12 22 29 30 32 37 39 38 36 32 30 30 25 15 14 15 16 18 18 17 15 15 13 11 10 8 5 3 2 5 5 7 9
5 5 6 7 4 6 5 2 5 3 4 6 8 17 18 19 17 16 24 28 27 30 37 40 40 36 30 26 18 11 16 17 20 21 20 20 16 13 11 10 9 5 1 1 2 3 4 4 8
12 9 12 5 0 1 2 3 2 8 12 10 11 9 11 14 15 17 25 25 32 37 38 38 37 32 28 25 22 21 27 23 25 26 24 21 14 12 10 9 8 5 4 3 1 3 6 9 10
11 3 2 7 3 3 3 3 6 4 7 9 15 14 15 17 19 18 25 34 33 36 40 38 34 32 29 28 24 25 26 28 26 26 24 20 17 14 13 11 8 8 6 2 1 6 9 9 10
4 4 6 6 4 2 4 5 5 6 11 15 9 17 13 12 13 11 22 27 30 36 38 34 35 34 30 29 25 30 29 29 24 26 26 22 20 17 12 9 10 5 1 3 7 10 12 13 15
3 5 2 3 3 5 6 4 9 4 7 8 9 9 10 11 9 11 14 21 23 27 29 36 35 29 26 30 27 31 30 29 27 29 27 22 17 16 15 10 4 2 4 6 6 8 12 13 15
4 3 5 3 3 4 4 4 6 7 7 5 6 9 10 11 13 13 16 21 23 28 32 31 30 26 22 25 30 30 23 23 21 21 20 15 15 12 8 6 2 3 3 7 9 11 11 14 14
3 2 6 5 1 3 3 4 6 6 7 7 6 8 7 9 10 12 14 20 24 28 31 33 29 25 24 26 26 22 21 22 20 16 16 21 12 11 4 4 7 6 7 11 12 13 14 12 8
6 5 2 3 2 3 4 4 5 2 2 2 4 8 8 8 8 8 13 20 26 30 29 27 27 29 30 26 25 24 24 22 20 19 15 6 8 1 9 7 4 9 14 14 15 14 11 11 14
1 2 1 4 5 4 1 5 5 8 8 10 9 8 11 12 11 11 13 23 31 31 31 29 30 33 30 28 27 26 24 26 19 11 3 6 2 6 4 8 8 10 11 15 15 14 13 14 16
4 5 5 5 4 1 4 5 4 9 10 8 8 8 10 13 14 14 19 25 27 33 35 33 36 38 37 33 31 27 21 11 9 10 8 3 5 6 5 5 7 11 14 13 13 14 13 14 13
Wind_Direction
254 248 283 54 64 69 256 266 260 301 106 316 30 100 116 70 45 180 140 174 153 151 157 154 148 145 147 142 139 132 126 123 115 112 112 109 106 104 103 100 96 90 83 79 76 73 71 69 60
242 182 102 80 92 88 265 246 279 194 174 179 71 106 41 78 57 108 113 149 150 152 155 152 147 143 144 143 140 132 130 124 120 119 114 110 109 107 103 101 98 94 89 84 79 74 72 70 61
256 190 96 138 151 201 224 266 207 100 198 179 113 67 77 31 47 134 146 154 148 151 155 153 146 144 145 143 139 133 129 124 123 122 117 115 111 106 105 103 101 96 93 88 82 75 72 69 64
164 32 20 111 250 274 274 324 235 178 128 69 92 68 68 15 4 117 150 161 156 155 154 153 146 146 144 142 140 135 128 128 124 124 120 117 113 111 111 108 104 99 93 87 81 76 73 68 62
84 71 334 56 260 310 19 354 23 17 345 33 26 77 51 41 91 117 144 150 154 152 152 150 142 138 141 138 138 133 131 130 132 128 123 118 115 114 112 108 103 98 93 89 82 76 73 69 60
24 102 53 189 265 211 137 341 99 43 7 345 65 105 70 99 92 95 131 161 152 132 130 141 139 137 137 139 137 136 134 136 134 130 124 122 119 117 115 110 104 100 95 85 79 72 71 69 60
141 94 223 202 244 297 256 159 96 168 134 238 169 74 59 96 114 117 113 123 134 132 138 136 137 130 142 140 141 139 140 139 138 131 128 123 120 119 116 111 107 101 92 82 79 77 77 72 64
128 114 333 261 296 257 346 346 2 232 171 114 228 144 170 144 122 120 120 119 124 128 128 125 142 152 152 145 146 143 143 140 136 133 128 123 120 119 114 110 108 99 84 80 79 79 71 71 79
122 66 301 254 173 192 99 18 342 307 340 63 15 68 125 130 123 121 122 130 132 136 134 138 175 169 155 151 149 147 142 139 134 129 127 126 121 121 117 116 108 101 100 91 85 76 76 61 58
111 120 237 234 136 148 114 144 229 66 357 64 84 97 120 129 128 127 131 131 140 149 151 165 173 168 157 158 152 152 146 144 138 134 133 127 126 116 113 109 114 106 109 102 97 99 89 82 62
186 227 147 262 139 133 151 222 216 159 85 177 135 123 130 124 128 123 139 156 156 158 168 183 187 164 161 161 158 151 146 145 140 136 138 135 143 140 116 122 134 124 123 125 123 111 93 75 58
230 243 166 176 138 133 183 141 255 105 111 129 146 136 138 117 131 137 155 164 170 175 177 184 180 169 169 165 156 151 151 146 136 157 163 173 166 149 145 145 129 151 126 123 122 105 82 59 39
249 269 111 153 144 162 107 145 253 302 119 134 137 129 137 136 144 167 188 176 178 191 189 176 175 175 172 162 160 158 156 151 153 147 142 144 136 148 149 135 134 128 127 122 107 80 41 21 15
313 89 109 89 139 150 137 262 22 304 181 128 134 136 147 158 167 177 181 193 184 201 181 176 174 179 170 169 168 170 166 161 161 164 170 166 164 159 150 141 133 122 117 93 61 45 33 27 17
224 96 87 60 232 200 143 278 247 37 122 138 145 154 165 179 173 181 180 188 188 175 161 176 183 184 180 180 176 172 169 172 176 179 166 169 166 158 148 139 124 114 103 68 48 38 17 13 14
36 50 106 229 188 220 173 197 202 214 130 173 147 160 162 174 187 187 180 188 182 174 164 168 170 167 167 162 164 168 170 173 163 158 157 161 158 151 145 143 125 119 109 71 39 20 28 28 16
12 88 125 272 286 138 106 228 245 157 162 179 162 167 170 176 188 193 191 182 179 181 172 173 173 169 166 163 163 166 161 158 150 156 156 153 147 141 137 128 125 130 111 70 31 40 29 7 16
329 225 279 198 246 285 232 247 284 171 155 173 170 168 172 176 189 194 180 180 180 179 179 175 172 172 171 167 163 156 155 149 154 158 153 151 150 144 136 130 135 144 129 85 102 62 17 34 28
343 303 291 244 210 176 217 226 210 175 160 160 165 166 175 189 198 182 175 175 176 177 179 178 174 176 175 170 164 165 165 166 164 160 159 160 158 157 152 148 152 161 162 145 123 43 34 27 358
324 281 269 302 240 181 167 232 211 179 180 171 169 173 178 174 158 174 175 174 175 178 180 182 184 183 185 183 181 186 189 186 178 169 168 164 165 161 162 160 162 170 160 154 25 20 16 352 7
287 251 291 261 337 183 120 15 165 180 189 191 200 180 179 175 162 168 171 174 174 174 180 185 188 189 190 190 189 192 186 178 178 180 179 178 176 176 187 202 208 212 234 114 70 23 15 5 353
296 280 233 286 25 158 57 218 252 194 200 186 199 191 183 182 168 167 170 170 174 183 186 189 193 193 197 198 197 191 179 176 190 188 185 178 188 188 194 199 197 189 166 139 73 24 358 351 349
248 73 229 291 99 67 327 74 268 176 185 190 207 195 190 184 178 172 176 178 179 181 187 192 195 197 203 203 198 196 190 192 194 193 189 188 188 192 194 193 181 160 160 160 329 335 344 344 338
299 111 40 17 34 25 261 154 264 217 206 210 179 199 195 188 190 163 170 167 178 184 186 192 193 204 206 199 205 200 195 201 200 196 190 190 191 192 193 180 161 150 278 343 339 335 334 333 326
130 71 357 360 16 221 294 130 245 217 247 201 200 159 169 174 176 158 159 167 172 179 186 191 196 201 202 200 212 203 205 202 208 201 195 193 185 164 149 149 142 58 2 336 333 335 332 325 315
351 134 151 232 214 250 258 216 257 298 234 224 197 171 133 166 174 171 165 170 172 179 190 190 196 195 202 206 198 202 206 194 190 185 186 167 142 119 112 107 59 322 327 336 331 332 329 325 320
179 184 178 114 318 48 256 293 335 339 6 1 123 121 145 155 168 165 161 167 175 184 190 192 188 195 184 177 174 164 162 160 157 144 129 123 123 134 96 21 327 297 330 327 326 331 331 325 316
161 159 133 26 235 254 294 280 236 182 240 342 182 173 162 149 153 157 169 172 181 183 187 192 194 187 176 173 176 176 166 160 154 155 155 157 153 203 297 294 274 313 318 318 324 327 323 310 311
188 193 185 132 143 175 209 271 225 204 192 201 212 184 166 173 173 172 175 180 184 184 173 171 179 179 181 178 171 154 141 139 138 128 92 127 82 323 256 282 298 315 321 320 313 314 309 314 312
119 243 178 125 237 143 155 263 261 209 215 189 208 205 194 185 181 178 179 175 177 180 178 173 181 186 186 175 151 135 133 139 136 121 121 32 269 208 235 276 302 312 317 305 301 296 299 304 296